TimeEDT,TemperatureF,Dew PointF,Humidity,Sea Level PressureIn,VisibilityMPH,Wind Direction,Wind SpeedMPH,Gust SpeedMPH,PrecipitationIn,Events,Conditions,WindDirDegrees,DateUTC
12:15 AM,19.8,12.2,72,29.62,10.0,Calm,Calm,-,N/A,,Clear,0,2013-03-22 04:15:00
12:35 AM,11.3,5.7,78,29.62,10.0,Calm,Calm,-,N/A,,Clear,0,2013-03-22 04:35:00
12:55 AM,10.8,7.2,85,29.62,10.0,Calm,Calm,-,N/A,,Clear,0,2013-03-22 04:55:00
1:15 AM,14.9,10.4,82,29.62,10.0,WSW,3.5,-,N/A,,Clear,250,2013-03-22 05:15:00
1:35 AM,14.9,10.9,84,29.63,10.0,WSW,3.5,-,N/A,,Mostly Cloudy,240,2013-03-22 05:35:00
1:55 AM,14.5,10.2,83,29.63,10.0,SW,3.5,-,N/A,,Mostly Cloudy,230,2013-03-22 05:55:00
2:15 AM,13.1,9.3,85,29.63,10.0,SW,5.8,-,N/A,Snow,Light Snow,220,2013-03-22 06:15:00
2:35 AM,14.0,9.9,84,29.63,10.0,Calm,Calm,-,N/A,,Scattered Clouds,0,2013-03-22 06:35:00
2:55 AM,13.6,9.5,84,29.63,10.0,SSW,3.5,-,N/A,Snow,Light Snow,210,2013-03-22 06:55:00
3:15 AM,13.1,8.8,83,29.63,10.0,SW,6.9,-,N/A,,Overcast,220,2013-03-22 07:15:00
3:35 AM,13.6,9.5,84,29.62,7.0,SSW,4.6,-,N/A,Snow,Light Snow,210,2013-03-22 07:35:00
3:55 AM,14.9,10.6,83,29.61,2.5,Calm,Calm,-,N/A,Snow,Light Snow,0,2013-03-22 07:55:00
4:15 AM,12.9,8.6,83,29.62,7.0,Calm,Calm,-,N/A,,Overcast,0,2013-03-22 08:15:00
4:35 AM,13.1,9.5,86,29.61,10.0,Calm,Calm,-,N/A,,Scattered Clouds,0,2013-03-22 08:35:00
4:55 AM,12.2,9.0,87,29.62,10.0,SSW,3.5,-,N/A,,Clear,210,2013-03-22 08:55:00
5:15 AM,11.3,8.2,87,29.61,10.0,Calm,Calm,-,N/A,,Clear,0,2013-03-22 09:15:00
5:35 AM,10.9,7.7,87,29.62,10.0,Calm,Calm,-,N/A,,Clear,0,2013-03-22 09:35:00
5:55 AM,10.8,7.5,87,29.62,10.0,Calm,Calm,-,N/A,,Scattered Clouds,0,2013-03-22 09:55:00
6:15 AM,11.1,8.2,88,29.62,7.0,SW,3.5,-,N/A,,Mostly Cloudy,230,2013-03-22 10:15:00
6:35 AM,10.9,7.5,86,29.63,10.0,Calm,Calm,-,N/A,,Overcast,0,2013-03-22 10:35:00
6:55 AM,9.5,5.9,85,29.63,10.0,Calm,Calm,-,N/A,,Overcast,0,2013-03-22 10:55:00
7:15 AM,10.4,7.0,86,29.63,10.0,SW,3.5,-,N/A,,Overcast,220,2013-03-22 11:15:00
7:55 AM,11.5,7.9,85,29.63,5.0,Calm,Calm,-,N/A,Snow,Light Snow,0,2013-03-22 11:55:00
8:15 AM,13.3,10.0,87,29.63,10.0,Calm,Calm,-,N/A,,Overcast,0,2013-03-22 12:15:00
8:35 AM,13.5,10.2,87,29.64,10.0,Calm,Calm,-,N/A,,Scattered Clouds,0,2013-03-22 12:35:00
8:55 AM,14.9,11.7,87,29.63,10.0,Calm,Calm,-,N/A,,Clear,0,2013-03-22 12:55:00
9:15 AM,13.6,10.0,86,29.63,10.0,Calm,Calm,-,N/A,,Scattered Clouds,0,2013-03-22 13:15:00
9:35 AM,17.2,10.9,76,29.64,10.0,Calm,Calm,-,N/A,,Mostly Cloudy,0,2013-03-22 13:35:00
9:55 AM,19.6,12.2,73,29.64,10.0,Calm,Calm,-,N/A,,Overcast,0,2013-03-22 13:55:00
10:15 AM,22.3,13.3,68,29.64,10.0,Calm,Calm,-,N/A,,Overcast,0,2013-03-22 14:15:00
10:35 AM,23.5,14.5,69,29.63,10.0,Calm,Calm,-,N/A,,Overcast,0,2013-03-22 14:35:00
10:55 AM,25.5,14.7,64,29.63,10.0,Calm,Calm,-,N/A,,Overcast,0,2013-03-22 14:55:00
11:15 AM,25.0,15.3,67,29.64,7.0,Calm,Calm,-,N/A,Snow,Light Snow,0,2013-03-22 15:15:00
11:35 AM,25.9,15.6,65,29.63,7.0,Calm,Calm,-,N/A,,Overcast,0,2013-03-22 15:35:00
11:55 AM,26.4,16.2,65,29.63,5.0,Calm,Calm,-,N/A,Snow,Light Snow,0,2013-03-22 15:55:00
12:15 PM,26.4,16.7,67,29.63,10.0,Calm,Calm,-,N/A,,Overcast,0,2013-03-22 16:15:00
12:35 PM,27.1,17.4,67,29.63,4.0,Calm,Calm,-,N/A,Snow,Light Snow,0,2013-03-22 16:35:00
12:55 PM,27.5,18.0,67,29.63,10.0,NNE,3.5,-,N/A,,Overcast,20,2013-03-22 16:55:00
1:15 PM,28.8,18.3,65,29.63,7.0,NW,3.5,-,N/A,Snow,Light Snow,310,2013-03-22 17:15:00
1:35 PM,28.9,16.9,61,29.62,10.0,Calm,Calm,-,N/A,,Overcast,0,2013-03-22 17:35:00
1:55 PM,28.9,16.3,59,29.62,10.0,NNW,5.8,-,N/A,,Overcast,340,2013-03-22 17:55:00
2:15 PM,29.1,16.5,59,29.62,7.0,NW,6.9,-,N/A,Snow,Light Snow,320,2013-03-22 18:15:00
2:35 PM,29.1,16.9,60,29.61,7.0,Calm,Calm,-,N/A,Snow,Light Snow,0,2013-03-22 18:35:00
2:55 PM,28.9,17.8,63,29.61,5.0,NW,8.1,-,N/A,Snow,Light Snow,310,2013-03-22 18:55:00
3:15 PM,27.5,21.0,77,29.62,1.0,NW,3.5,-,N/A,Snow,Light Snow,310,2013-03-22 19:15:00
3:35 PM,28.9,19.9,69,29.62,4.0,NW,8.1,-,N/A,Snow,Light Snow,320,2013-03-22 19:35:00
3:55 PM,28.8,21.6,74,29.62,2.0,NW,4.6,-,N/A,Snow,Light Snow,320,2013-03-22 19:55:00
4:15 PM,28.4,20.1,71,29.62,10.0,NW,8.1,-,N/A,Snow,Light Snow,310,2013-03-22 20:15:00
4:35 PM,28.8,18.5,66,29.62,10.0,NW,9.2,-,N/A,,Overcast,310,2013-03-22 20:35:00
4:55 PM,29.1,16.3,59,29.62,10.0,NW,11.5,16.1,N/A,,Overcast,310,2013-03-22 20:55:00
5:15 PM,28.9,17.2,62,29.62,10.0,NNW,11.5,-,N/A,,Scattered Clouds,330,2013-03-22 21:15:00
5:55 PM,27.7,15.4,60,29.63,10.0,NW,6.9,-,N/A,,Mostly Cloudy,320,2013-03-22 21:55:00
6:15 PM,27.9,15.8,61,29.63,10.0,NW,6.9,16.1,N/A,,Overcast,310,2013-03-22 22:15:00
6:35 PM,27.3,16.3,63,29.65,10.0,NW,6.9,-,N/A,,Overcast,320,2013-03-22 22:35:00
7:15 PM,25.7,15.4,65,29.67,10.0,NW,9.2,-,N/A,,Overcast,310,2013-03-22 23:15:00
7:35 PM,25.2,14.9,65,29.68,10.0,NW,8.1,-,N/A,,Overcast,310,2013-03-22 23:35:00
7:55 PM,24.4,14.7,67,29.68,10.0,WNW,9.2,-,N/A,,Overcast,300,2013-03-22 23:55:00
8:15 PM,23.9,14.0,66,29.69,10.0,WNW,10.4,-,N/A,Snow,Light Snow,290,2013-03-23 00:15:00
8:35 PM,23.7,14.0,66,29.69,10.0,WNW,8.1,18.4,N/A,Snow,Light Snow,290,2013-03-23 00:35:00
8:55 PM,23.0,13.6,67,29.68,10.0,West,6.9,-,N/A,,Scattered Clouds,260,2013-03-23 00:55:00
9:15 PM,22.3,13.3,68,29.68,10.0,SW,9.2,-,N/A,Snow,Light Snow,230,2013-03-23 01:15:00
9:35 PM,22.3,14.2,71,29.67,10.0,SW,8.1,-,N/A,Snow,Light Snow,230,2013-03-23 01:35:00
9:55 PM,22.6,15.8,75,29.67,7.0,West,5.8,-,N/A,Snow,Light Snow,260,2013-03-23 01:55:00
10:15 PM,22.8,16.3,76,29.67,5.0,West,4.6,-,N/A,Snow,Light Snow,260,2013-03-23 02:15:00
10:35 PM,23.4,16.7,76,29.67,7.0,West,6.9,-,N/A,Snow,Light Snow,260,2013-03-23 02:35:00
10:55 PM,23.7,17.1,76,29.67,4.0,Calm,Calm,-,N/A,Snow,Light Snow,0,2013-03-23 02:55:00
11:15 PM,23.7,17.1,76,29.67,7.0,West,6.9,-,N/A,Snow,Light Snow,280,2013-03-23 03:15:00
11:35 PM,23.9,17.2,76,29.67,4.0,West,6.9,-,N/A,Snow,Light Snow,270,2013-03-23 03:35:00
11:55 PM,23.9,17.6,77,29.67,4.0,West,6.9,-,N/A,Snow,Light Snow,280,2013-03-23 03:55:00